Year,Month,Day,Hour,Minute,Value (Times are PST for temperature in C)
2006,08,18,00,00,12.30
2006,08,18,00,01,12.30
2006,08,18,00,02,12.30
2006,08,18,00,03,12.30
2006,08,18,00,04,12.30
2006,08,18,00,05,12.30
2006,08,18,00,06,12.30
2006,08,18,00,07,12.30
2006,08,18,00,08,12.30
2006,08,18,00,09,12.30
2006,08,18,00,10,12.30
2006,08,18,00,11,12.30
2006,08,18,00,12,12.30
2006,08,18,00,13,12.30
2006,08,18,00,14,12.20
2006,08,18,00,15,12.20
2006,08,18,00,16,12.20
2006,08,18,00,17,12.20
2006,08,18,00,18,12.20
2006,08,18,00,19,12.20
2006,08,18,00,20,12.20
2006,08,18,00,21,12.20
2006,08,18,00,22,12.30
2006,08,18,00,23,12.30
2006,08,18,00,24,12.30
2006,08,18,00,25,12.30
2006,08,18,00,26,12.30
2006,08,18,00,27,12.30
2006,08,18,00,28,12.30
2006,08,18,00,29,12.30
2006,08,18,00,30,12.30
2006,08,18,00,31,12.30
2006,08,18,00,32,12.30
2006,08,18,00,33,12.30
2006,08,18,00,34,12.30
2006,08,18,00,35,12.30
2006,08,18,00,36,12.20
2006,08,18,00,37,12.20
2006,08,18,00,38,12.20
2006,08,18,00,39,12.10
2006,08,18,00,40,12.10
2006,08,18,00,41,12.10
2006,08,18,00,42,12.10
2006,08,18,00,43,12.00
2006,08,18,00,44,12.00
2006,08,18,00,45,12.00
2006,08,18,00,46,11.90
2006,08,18,00,47,11.90
2006,08,18,00,48,11.90
2006,08,18,00,49,11.90
2006,08,18,00,50,11.90
2006,08,18,00,51,11.80
2006,08,18,00,52,11.80
2006,08,18,00,53,11.80
2006,08,18,00,54,11.80
2006,08,18,00,55,11.80
2006,08,18,00,56,11.80
2006,08,18,00,57,11.80
2006,08,18,00,58,11.80
2006,08,18,00,59,11.80
2006,08,18,01,00,11.80
2006,08,18,01,01,11.80
2006,08,18,01,02,11.80
2006,08,18,01,03,11.80
2006,08,18,01,04,11.80
2006,08,18,01,05,11.80
2006,08,18,01,06,11.80
2006,08,18,01,07,11.90
2006,08,18,01,08,11.90
2006,08,18,01,09,11.90
2006,08,18,01,10,11.90
2006,08,18,01,11,11.90
2006,08,18,01,12,11.90
2006,08,18,01,13,11.90
2006,08,18,01,14,11.90
2006,08,18,01,15,11.90
2006,08,18,01,16,11.90
2006,08,18,01,17,11.90
2006,08,18,01,18,11.90
2006,08,18,01,19,11.90
2006,08,18,01,20,11.90
2006,08,18,01,21,11.90
2006,08,18,01,22,11.90
2006,08,18,01,23,11.90
2006,08,18,01,24,11.90
2006,08,18,01,25,12.00
2006,08,18,01,26,12.00
2006,08,18,01,27,12.00
2006,08,18,01,28,12.00
2006,08,18,01,29,12.00
2006,08,18,01,30,11.90
2006,08,18,01,31,11.90
2006,08,18,01,32,11.90
2006,08,18,01,33,11.90
2006,08,18,01,34,11.80
2006,08,18,01,35,11.80
2006,08,18,01,36,11.80
2006,08,18,01,37,11.90
2006,08,18,01,38,11.90
2006,08,18,01,39,11.90
2006,08,18,01,40,12.00
2006,08,18,01,41,12.00
2006,08,18,01,42,12.00
2006,08,18,01,43,12.10
2006,08,18,01,44,12.10
2006,08,18,01,45,12.10
2006,08,18,01,46,12.10
2006,08,18,01,47,12.10
2006,08,18,01,48,12.10
2006,08,18,01,49,12.10
2006,08,18,01,50,12.00
2006,08,18,01,51,12.00
2006,08,18,01,52,11.90
2006,08,18,01,53,11.90
2006,08,18,01,54,11.90
2006,08,18,01,55,11.90
2006,08,18,01,56,11.90
2006,08,18,01,57,11.90
2006,08,18,01,58,11.80
2006,08,18,01,59,11.80
2006,08,18,02,00,11.80
2006,08,18,02,01,11.80
2006,08,18,02,02,11.80
2006,08,18,02,03,11.80
2006,08,18,02,04,11.80
2006,08,18,02,05,11.80
2006,08,18,02,06,11.90
2006,08,18,02,07,11.90
2006,08,18,02,08,12.00
2006,08,18,02,09,12.00
2006,08,18,02,10,12.00
2006,08,18,02,11,12.00
2006,08,18,02,12,12.00
2006,08,18,02,13,12.00
2006,08,18,02,14,12.10
2006,08,18,02,15,12.10
2006,08,18,02,16,12.10
2006,08,18,02,17,12.10
2006,08,18,02,18,12.10
2006,08,18,02,19,12.10
2006,08,18,02,20,12.10
2006,08,18,02,21,12.10
2006,08,18,02,22,12.10
2006,08,18,02,23,12.10
2006,08,18,02,24,12.10
2006,08,18,02,25,12.20
2006,08,18,02,26,12.20
2006,08,18,02,27,12.20
2006,08,18,02,28,12.20
2006,08,18,02,29,12.20
2006,08,18,02,30,12.20
2006,08,18,02,31,12.20
2006,08,18,02,32,12.30
2006,08,18,02,33,12.20
2006,08,18,02,34,12.20
2006,08,18,02,35,12.20
2006,08,18,02,36,12.30
2006,08,18,02,37,12.30
2006,08,18,02,38,12.30
2006,08,18,02,39,12.30
2006,08,18,02,40,12.30
2006,08,18,02,41,12.30
2006,08,18,02,42,12.30
2006,08,18,02,43,12.30
2006,08,18,02,44,12.30
2006,08,18,02,45,12.30
2006,08,18,02,46,12.30
2006,08,18,02,47,12.30
2006,08,18,02,48,12.30
2006,08,18,02,49,12.30
2006,08,18,02,50,12.30
2006,08,18,02,51,12.30
2006,08,18,02,52,12.40
2006,08,18,02,53,12.40
2006,08,18,02,54,12.40
2006,08,18,02,55,12.40
2006,08,18,02,56,12.40
2006,08,18,02,57,12.40
2006,08,18,02,58,12.40
2006,08,18,02,59,12.40
2006,08,18,03,00,12.30
2006,08,18,03,01,12.30
2006,08,18,03,02,12.30
2006,08,18,03,03,12.30
2006,08,18,03,04,12.30
2006,08,18,03,05,12.30
2006,08,18,03,06,12.20
2006,08,18,03,07,12.20
2006,08,18,03,08,12.20
2006,08,18,03,09,12.10
2006,08,18,03,10,12.10
2006,08,18,03,11,12.10
2006,08,18,03,12,12.10
2006,08,18,03,13,12.10
2006,08,18,03,14,12.10
2006,08,18,03,15,12.00
2006,08,18,03,16,12.00
2006,08,18,03,17,12.00
2006,08,18,03,18,12.00
2006,08,18,03,19,12.00
2006,08,18,03,20,12.00
2006,08,18,03,21,12.00
2006,08,18,03,22,12.00
2006,08,18,03,23,12.00
2006,08,18,03,24,12.00
2006,08,18,03,25,12.00
2006,08,18,03,26,12.00
2006,08,18,03,27,12.00
2006,08,18,03,28,12.00
2006,08,18,03,29,12.00
2006,08,18,03,30,12.00
2006,08,18,03,31,12.00
2006,08,18,03,32,12.10
2006,08,18,03,33,12.10
2006,08,18,03,34,12.10
2006,08,18,03,35,12.00
2006,08,18,03,36,12.00
2006,08,18,03,37,12.10
2006,08,18,03,38,12.00
2006,08,18,03,39,12.00
2006,08,18,03,40,12.00
2006,08,18,03,41,12.00
2006,08,18,03,42,12.00
2006,08,18,03,43,12.00
2006,08,18,03,44,12.00
2006,08,18,03,45,12.10
2006,08,18,03,46,12.10
2006,08,18,03,47,12.10
2006,08,18,03,48,12.10
2006,08,18,03,49,12.10
2006,08,18,03,50,12.10
2006,08,18,03,51,12.10
2006,08,18,03,52,12.10
2006,08,18,03,53,12.10
2006,08,18,03,54,12.10
2006,08,18,03,55,12.10
2006,08,18,03,56,12.20
2006,08,18,03,57,12.20
2006,08,18,03,58,12.20
2006,08,18,03,59,12.10
2006,08,18,04,00,12.10
2006,08,18,04,01,12.10
2006,08,18,04,02,12.10
2006,08,18,04,03,12.10
2006,08,18,04,04,12.00
2006,08,18,04,05,12.00
2006,08,18,04,06,12.00
2006,08,18,04,07,11.90
2006,08,18,04,08,11.90
2006,08,18,04,09,11.80
2006,08,18,04,10,11.80
2006,08,18,04,11,11.80
2006,08,18,04,12,11.80
2006,08,18,04,13,11.80
2006,08,18,04,14,11.80
2006,08,18,04,15,11.80
2006,08,18,04,16,11.80
2006,08,18,04,17,11.80
2006,08,18,04,18,11.80
2006,08,18,04,19,11.80
2006,08,18,04,20,11.80
2006,08,18,04,21,11.80
2006,08,18,04,22,11.80
2006,08,18,04,23,11.80
2006,08,18,04,24,11.80
2006,08,18,04,25,11.80
2006,08,18,04,26,11.70
2006,08,18,04,27,11.70
2006,08,18,04,28,11.70
2006,08,18,04,29,11.70
2006,08,18,04,30,11.70
2006,08,18,04,31,11.70
2006,08,18,04,32,11.80
2006,08,18,04,33,11.80
2006,08,18,04,34,11.80
2006,08,18,04,35,11.80
2006,08,18,04,36,11.90
2006,08,18,04,37,11.90
2006,08,18,04,38,12.00
2006,08,18,04,39,12.00
2006,08,18,04,40,12.00
2006,08,18,04,41,12.10
2006,08,18,04,42,12.10
2006,08,18,04,43,12.20
2006,08,18,04,44,12.20
2006,08,18,04,45,12.20
2006,08,18,04,46,12.20
2006,08,18,04,47,12.20
2006,08,18,04,48,12.20
2006,08,18,04,49,12.20
2006,08,18,04,50,12.30
2006,08,18,04,51,12.30
2006,08,18,04,52,12.30
2006,08,18,04,53,12.30
2006,08,18,04,54,12.30
2006,08,18,04,55,12.40
2006,08,18,04,56,12.40
2006,08,18,04,57,12.40
2006,08,18,04,58,12.40
2006,08,18,04,59,12.40
2006,08,18,05,00,12.40
2006,08,18,05,01,12.40
2006,08,18,05,02,12.40
2006,08,18,05,03,12.40
2006,08,18,05,04,12.40
2006,08,18,05,05,12.40
2006,08,18,05,06,12.40
2006,08,18,05,07,12.40
2006,08,18,05,08,12.40
2006,08,18,05,09,12.40
2006,08,18,05,10,12.40
2006,08,18,05,11,12.30
2006,08,18,05,12,12.30
2006,08,18,05,13,12.30
2006,08,18,05,14,12.30
2006,08,18,05,15,12.30
2006,08,18,05,16,12.30
2006,08,18,05,17,12.30
2006,08,18,05,18,12.30
2006,08,18,05,19,12.30
2006,08,18,05,20,12.20
2006,08,18,05,21,12.20
2006,08,18,05,22,12.20
2006,08,18,05,23,12.20
2006,08,18,05,24,12.20
2006,08,18,05,25,12.20
2006,08,18,05,26,12.20
2006,08,18,05,27,12.20
2006,08,18,05,28,12.20
2006,08,18,05,29,12.20
2006,08,18,05,30,12.20
2006,08,18,05,31,12.20
2006,08,18,05,32,12.20
2006,08,18,05,33,12.20
2006,08,18,05,34,12.20
2006,08,18,05,35,12.20
2006,08,18,05,36,12.20
2006,08,18,05,37,12.20
2006,08,18,05,38,12.20
2006,08,18,05,39,12.20
2006,08,18,05,40,12.20
2006,08,18,05,41,12.20
2006,08,18,05,42,12.20
2006,08,18,05,43,12.20
2006,08,18,05,44,12.10
2006,08,18,05,45,12.10
2006,08,18,05,46,12.10
2006,08,18,05,47,12.10
2006,08,18,05,48,12.10
2006,08,18,05,49,12.10
2006,08,18,05,50,12.10
2006,08,18,05,51,12.10
2006,08,18,05,52,12.10
2006,08,18,05,53,12.00
2006,08,18,05,54,12.00
2006,08,18,05,55,12.00
2006,08,18,05,56,12.00
2006,08,18,05,57,12.00
2006,08,18,05,58,12.00
2006,08,18,05,59,12.00
2006,08,18,06,00,12.00
2006,08,18,06,01,12.00
2006,08,18,06,02,11.90
2006,08,18,06,03,11.90
2006,08,18,06,04,11.90
2006,08,18,06,05,11.80
2006,08,18,06,06,11.80
2006,08,18,06,07,11.80
2006,08,18,06,08,11.80
2006,08,18,06,09,11.80
2006,08,18,06,10,11.80
2006,08,18,06,11,11.80
2006,08,18,06,12,11.80
2006,08,18,06,13,11.80
2006,08,18,06,14,11.80
2006,08,18,06,15,11.80
2006,08,18,06,16,11.80
2006,08,18,06,17,11.80
2006,08,18,06,18,11.80
2006,08,18,06,19,11.80
2006,08,18,06,20,11.80
2006,08,18,06,21,11.80
2006,08,18,06,22,11.80
2006,08,18,06,23,11.80
2006,08,18,06,24,11.80
2006,08,18,06,25,11.80
2006,08,18,06,26,11.80
2006,08,18,06,27,11.80
2006,08,18,06,28,11.80
2006,08,18,06,29,11.80
2006,08,18,06,30,11.80
2006,08,18,06,31,11.90
2006,08,18,06,32,11.90
2006,08,18,06,33,12.00
2006,08,18,06,34,12.00
2006,08,18,06,35,12.00
2006,08,18,06,36,12.10
2006,08,18,06,37,12.10
2006,08,18,06,38,12.10
2006,08,18,06,39,12.00
2006,08,18,06,40,12.00
2006,08,18,06,41,12.00
2006,08,18,06,42,12.00
2006,08,18,06,43,12.00
2006,08,18,06,44,12.00
2006,08,18,06,45,12.00
2006,08,18,06,46,12.00
2006,08,18,06,47,12.00
2006,08,18,06,48,12.00
2006,08,18,06,49,12.00
2006,08,18,06,50,11.90
2006,08,18,06,51,11.90
2006,08,18,06,52,11.90
2006,08,18,06,53,11.90
2006,08,18,06,54,11.90
2006,08,18,06,55,11.90
2006,08,18,06,56,11.90
2006,08,18,06,57,11.90
2006,08,18,06,58,11.90
2006,08,18,06,59,11.90
2006,08,18,07,00,11.90
2006,08,18,07,01,11.90
2006,08,18,07,02,12.00
2006,08,18,07,03,12.00
2006,08,18,07,04,12.10
2006,08,18,07,05,12.10
2006,08,18,07,06,12.10
2006,08,18,07,07,12.20
2006,08,18,07,08,12.20
2006,08,18,07,09,12.20
2006,08,18,07,10,12.20
2006,08,18,07,11,12.20
2006,08,18,07,12,12.30
2006,08,18,07,13,12.30
2006,08,18,07,14,12.30
2006,08,18,07,15,12.30
2006,08,18,07,16,12.30
2006,08,18,07,17,12.30
2006,08,18,07,18,12.30
2006,08,18,07,19,12.30
2006,08,18,07,20,12.30
2006,08,18,07,21,12.30
2006,08,18,07,22,12.30
2006,08,18,07,23,12.30
2006,08,18,07,24,12.30
2006,08,18,07,25,12.30
2006,08,18,07,26,12.40
2006,08,18,07,27,12.40
2006,08,18,07,28,12.40
2006,08,18,07,29,12.40
2006,08,18,07,30,12.50
2006,08,18,07,31,12.50
2006,08,18,07,32,12.50
2006,08,18,07,33,12.50
2006,08,18,07,34,12.60
2006,08,18,07,35,12.60
2006,08,18,07,36,12.70
2006,08,18,07,37,12.70
2006,08,18,07,38,12.70
2006,08,18,07,39,12.80
2006,08,18,07,40,12.80
2006,08,18,07,41,12.80
2006,08,18,07,42,12.90
2006,08,18,07,43,12.90
2006,08,18,07,44,13.00
2006,08,18,07,45,13.00
2006,08,18,07,46,13.10
2006,08,18,07,47,13.20
2006,08,18,07,48,13.20
2006,08,18,07,49,13.30
2006,08,18,07,50,13.30
2006,08,18,07,51,13.40
2006,08,18,07,52,13.40
2006,08,18,07,53,13.50
2006,08,18,07,54,13.50
2006,08,18,07,55,13.60
2006,08,18,07,56,13.70
2006,08,18,07,57,13.70
2006,08,18,07,58,13.80
2006,08,18,07,59,13.90
2006,08,18,08,00,13.90
2006,08,18,08,01,13.90
2006,08,18,08,02,14.00
2006,08,18,08,03,14.00
2006,08,18,08,04,14.10
2006,08,18,08,05,14.20
2006,08,18,08,06,14.20
2006,08,18,08,07,14.30
2006,08,18,08,08,14.40
2006,08,18,08,09,14.50
2006,08,18,08,10,14.50
2006,08,18,08,11,14.60
2006,08,18,08,12,14.70
2006,08,18,08,13,14.70
2006,08,18,08,14,14.80
2006,08,18,08,15,14.80
2006,08,18,08,16,14.80
2006,08,18,08,17,14.80
2006,08,18,08,18,14.90
2006,08,18,08,19,14.90
2006,08,18,08,20,15.00
2006,08,18,08,21,15.00
2006,08,18,08,22,15.00
2006,08,18,08,23,15.10
2006,08,18,08,24,15.10
2006,08,18,08,25,15.10
2006,08,18,08,26,15.20
2006,08,18,08,27,15.20
2006,08,18,08,28,15.30
2006,08,18,08,29,15.30
2006,08,18,08,30,15.30
2006,08,18,08,31,15.30
2006,08,18,08,32,15.30
2006,08,18,08,33,15.30
2006,08,18,08,34,15.30
2006,08,18,08,35,15.30
2006,08,18,08,36,15.40
2006,08,18,08,37,15.40
2006,08,18,08,38,15.40
2006,08,18,08,39,15.50
2006,08,18,08,40,15.50
2006,08,18,08,41,15.50
2006,08,18,08,42,15.50
2006,08,18,08,43,15.50
2006,08,18,08,44,15.60
2006,08,18,08,45,15.60
2006,08,18,08,46,15.60
2006,08,18,08,47,15.70
2006,08,18,08,48,15.70
2006,08,18,08,49,15.70
2006,08,18,08,50,15.80
2006,08,18,08,51,15.80
2006,08,18,08,52,15.90
2006,08,18,08,53,15.90
2006,08,18,08,54,16.00
2006,08,18,08,55,16.10
2006,08,18,08,56,16.10
2006,08,18,08,57,16.10
2006,08,18,08,58,16.20
2006,08,18,08,59,16.20
2006,08,18,09,00,16.30
2006,08,18,09,01,16.30
2006,08,18,09,02,16.40
2006,08,18,09,03,16.40
2006,08,18,09,04,16.40
2006,08,18,09,05,16.40
2006,08,18,09,06,16.50
2006,08,18,09,07,16.60
2006,08,18,09,08,16.60
2006,08,18,09,09,16.70
2006,08,18,09,10,16.70
2006,08,18,09,11,16.70
2006,08,18,09,12,16.70
2006,08,18,09,13,16.70
2006,08,18,09,14,16.70
2006,08,18,09,15,16.70
2006,08,18,09,16,16.80
2006,08,18,09,17,16.80
2006,08,18,09,18,16.90
2006,08,18,09,19,16.90
2006,08,18,09,20,17.00
2006,08,18,09,21,17.10
2006,08,18,09,22,17.20
2006,08,18,09,23,17.20
2006,08,18,09,24,17.30
2006,08,18,09,25,17.30
2006,08,18,09,26,17.30
2006,08,18,09,27,17.30
2006,08,18,09,28,17.30
2006,08,18,09,29,17.30
2006,08,18,09,30,17.40
2006,08,18,09,31,17.40
2006,08,18,09,32,17.40
2006,08,18,09,33,17.30
2006,08,18,09,34,17.40
2006,08,18,09,35,17.40
2006,08,18,09,36,17.50
2006,08,18,09,37,17.50
2006,08,18,09,38,17.60
2006,08,18,09,39,17.60
2006,08,18,09,40,17.60
2006,08,18,09,41,17.70
2006,08,18,09,42,17.70
2006,08,18,09,43,17.70
2006,08,18,09,44,17.80
2006,08,18,09,45,17.80
2006,08,18,09,46,17.80
2006,08,18,09,47,17.90
2006,08,18,09,48,17.90
2006,08,18,09,49,17.90
2006,08,18,09,50,18.00
2006,08,18,09,51,18.10
2006,08,18,09,52,18.20
2006,08,18,09,53,18.30
2006,08,18,09,54,18.40
2006,08,18,09,55,18.40
2006,08,18,09,56,18.50
2006,08,18,09,57,18.50
2006,08,18,09,58,18.60
2006,08,18,09,59,18.70
2006,08,18,10,00,18.70
2006,08,18,10,01,18.80
2006,08,18,10,02,18.80
2006,08,18,10,03,18.80
2006,08,18,10,04,18.80
2006,08,18,10,05,18.80
2006,08,18,10,06,18.90
2006,08,18,10,07,18.90
2006,08,18,10,08,18.90
2006,08,18,10,09,18.90
2006,08,18,10,10,19.00
2006,08,18,10,11,19.10
2006,08,18,10,12,19.10
2006,08,18,10,13,19.10
2006,08,18,10,14,19.10
2006,08,18,10,15,19.20
2006,08,18,10,16,19.20
2006,08,18,10,17,19.20
2006,08,18,10,18,19.20
2006,08,18,10,19,19.20
2006,08,18,10,20,19.20
2006,08,18,10,21,19.30
2006,08,18,10,22,19.30
2006,08,18,10,23,19.40
2006,08,18,10,24,19.40
2006,08,18,10,25,19.40
2006,08,18,10,26,19.40
2006,08,18,10,27,19.40
2006,08,18,10,28,19.40
2006,08,18,10,29,19.40
2006,08,18,10,30,19.40
2006,08,18,10,31,19.40
2006,08,18,10,32,19.40
2006,08,18,10,33,19.50
2006,08,18,10,34,19.60
2006,08,18,10,35,19.60
2006,08,18,10,36,19.70
2006,08,18,10,37,19.70
2006,08,18,10,38,19.70
2006,08,18,10,39,19.70
2006,08,18,10,40,19.70
2006,08,18,10,41,19.70
2006,08,18,10,42,19.70
2006,08,18,10,43,19.70
2006,08,18,10,44,19.70
2006,08,18,10,45,19.70
2006,08,18,10,46,19.80
2006,08,18,10,47,19.80
2006,08,18,10,48,19.90
2006,08,18,10,49,19.90
2006,08,18,10,50,20.00
2006,08,18,10,51,20.10
2006,08,18,10,52,20.20
2006,08,18,10,53,20.20
2006,08,18,10,54,20.30
2006,08,18,10,55,20.50
2006,08,18,10,56,20.50
2006,08,18,10,57,20.60
2006,08,18,10,58,20.70
2006,08,18,10,59,20.60
2006,08,18,11,00,20.60
2006,08,18,11,01,20.60
2006,08,18,11,02,20.70
2006,08,18,11,03,20.70
2006,08,18,11,04,20.80
2006,08,18,11,05,20.80
2006,08,18,11,06,20.90
2006,08,18,11,07,20.90
2006,08,18,11,08,20.80
2006,08,18,11,09,20.90
2006,08,18,11,10,20.90
2006,08,18,11,11,20.80
2006,08,18,11,12,20.80
2006,08,18,11,13,20.90
2006,08,18,11,14,20.90
2006,08,18,11,15,20.90
2006,08,18,11,16,20.90
2006,08,18,11,17,20.90
2006,08,18,11,18,21.00
2006,08,18,11,19,21.00
2006,08,18,11,20,21.00
2006,08,18,11,21,21.00
2006,08,18,11,22,20.90
2006,08,18,11,23,20.80
2006,08,18,11,24,20.80
2006,08,18,11,25,20.80
2006,08,18,11,26,20.90
2006,08,18,11,27,21.00
2006,08,18,11,28,21.00
2006,08,18,11,29,21.10
2006,08,18,11,30,21.20
2006,08,18,11,31,21.20
2006,08,18,11,32,21.20
2006,08,18,11,33,21.20
2006,08,18,11,34,21.20
2006,08,18,11,35,21.20
2006,08,18,11,36,21.20
2006,08,18,11,37,21.20
2006,08,18,11,38,21.20
2006,08,18,11,39,21.10
2006,08,18,11,40,21.00
2006,08,18,11,41,21.00
2006,08,18,11,42,21.00
2006,08,18,11,43,21.10
2006,08,18,11,44,21.20
2006,08,18,11,45,21.20
2006,08,18,11,46,21.20
2006,08,18,11,47,21.20
2006,08,18,11,48,21.20
2006,08,18,11,49,21.30
2006,08,18,11,50,21.30
2006,08,18,11,51,21.30
2006,08,18,11,52,21.30
2006,08,18,11,53,21.40
2006,08,18,11,54,21.40
2006,08,18,11,55,21.40
2006,08,18,11,56,21.40
2006,08,18,11,57,21.40
2006,08,18,11,58,21.30
2006,08,18,11,59,21.30
2006,08,18,12,00,21.30
2006,08,18,12,01,21.30
2006,08,18,12,02,21.20
2006,08,18,12,03,21.10
2006,08,18,12,04,21.10
2006,08,18,12,05,21.20
2006,08,18,12,06,21.30
2006,08,18,12,07,21.30
2006,08,18,12,08,21.30
2006,08,18,12,09,21.30
2006,08,18,12,10,21.40
2006,08,18,12,11,21.50
2006,08,18,12,12,21.60
2006,08,18,12,13,21.60
2006,08,18,12,14,21.60
2006,08,18,12,15,21.60
2006,08,18,12,16,21.60
2006,08,18,12,17,21.60
2006,08,18,12,18,21.60
2006,08,18,12,19,21.60
2006,08,18,12,20,21.60
2006,08,18,12,21,21.60
2006,08,18,12,22,21.60
2006,08,18,12,23,21.60
2006,08,18,12,24,21.70
2006,08,18,12,25,21.70
2006,08,18,12,26,21.70
2006,08,18,12,27,21.80
2006,08,18,12,28,21.80
2006,08,18,12,29,21.80
2006,08,18,12,30,21.80
2006,08,18,12,31,21.90
2006,08,18,12,32,22.00
2006,08,18,12,33,22.00
2006,08,18,12,34,21.90
2006,08,18,12,35,21.90
2006,08,18,12,36,22.00
2006,08,18,12,37,22.00
2006,08,18,12,38,22.10
2006,08,18,12,39,22.30
2006,08,18,12,40,22.40
2006,08,18,12,41,22.40
2006,08,18,12,42,22.50
2006,08,18,12,43,22.30
2006,08,18,12,44,22.00
2006,08,18,12,45,21.80
2006,08,18,12,46,21.90
2006,08,18,12,47,22.00
2006,08,18,12,48,22.00
2006,08,18,12,49,22.10
2006,08,18,12,50,22.20
2006,08,18,12,51,22.20
2006,08,18,12,52,22.30
2006,08,18,12,53,22.30
2006,08,18,12,54,22.40
2006,08,18,12,55,22.40
2006,08,18,12,56,22.40
2006,08,18,12,57,22.40
2006,08,18,12,58,22.50
2006,08,18,12,59,22.50
2006,08,18,13,00,22.60
2006,08,18,13,01,22.50
2006,08,18,13,02,22.40
2006,08,18,13,03,22.40
2006,08,18,13,04,22.40
2006,08,18,13,05,22.40
2006,08,18,13,06,22.40
2006,08,18,13,07,22.50
2006,08,18,13,08,22.50
2006,08,18,13,09,22.60
2006,08,18,13,10,22.70
2006,08,18,13,11,22.70
2006,08,18,13,12,22.70
2006,08,18,13,13,22.80
2006,08,18,13,14,22.80
2006,08,18,13,15,22.80
2006,08,18,13,16,22.80
2006,08,18,13,17,22.80
2006,08,18,13,18,22.70
2006,08,18,13,19,22.60
2006,08,18,13,20,22.50
2006,08,18,13,21,22.40
2006,08,18,13,22,22.40
2006,08,18,13,23,22.30
2006,08,18,13,24,22.40
2006,08,18,13,25,22.40
2006,08,18,13,26,22.30
2006,08,18,13,27,22.40
2006,08,18,13,28,22.40
2006,08,18,13,29,22.50
2006,08,18,13,30,22.50
2006,08,18,13,31,22.40
2006,08,18,13,32,22.40
2006,08,18,13,33,22.50
2006,08,18,13,34,22.60
2006,08,18,13,35,22.60
2006,08,18,13,36,22.70
2006,08,18,13,37,22.90
2006,08,18,13,38,22.90
2006,08,18,13,39,23.00
2006,08,18,13,40,23.10
2006,08,18,13,41,23.10
2006,08,18,13,42,23.00
2006,08,18,13,43,22.90
2006,08,18,13,44,22.90
2006,08,18,13,45,23.10
2006,08,18,13,46,23.00
2006,08,18,13,47,22.90
2006,08,18,13,48,22.90
2006,08,18,13,49,22.90
2006,08,18,13,50,22.90
2006,08,18,13,51,22.90
2006,08,18,13,52,22.90
2006,08,18,13,53,22.70
2006,08,18,13,54,22.70
2006,08,18,13,55,22.60
2006,08,18,13,56,22.60
2006,08,18,13,57,22.70
2006,08,18,13,58,22.70
2006,08,18,13,59,22.80
2006,08,18,14,00,22.90
2006,08,18,14,01,23.00
2006,08,18,14,02,23.20
2006,08,18,14,03,23.30
2006,08,18,14,04,23.30
2006,08,18,14,05,23.20
2006,08,18,14,06,23.10
2006,08,18,14,07,23.10
2006,08,18,14,08,23.10
2006,08,18,14,09,23.20
2006,08,18,14,10,23.30
2006,08,18,14,11,23.30
2006,08,18,14,12,23.50
2006,08,18,14,13,23.60
2006,08,18,14,14,23.70
2006,08,18,14,15,23.80
2006,08,18,14,16,23.90
2006,08,18,14,17,23.90
2006,08,18,14,18,24.10
2006,08,18,14,19,24.10
2006,08,18,14,20,24.10
2006,08,18,14,21,24.20
2006,08,18,14,22,24.20
2006,08,18,14,23,24.30
2006,08,18,14,24,24.40
2006,08,18,14,25,24.40
2006,08,18,14,26,24.40
2006,08,18,14,27,24.40
2006,08,18,14,28,24.40
2006,08,18,14,29,24.50
2006,08,18,14,30,24.50
2006,08,18,14,31,24.40
2006,08,18,14,32,24.50
2006,08,18,14,33,24.60
2006,08,18,14,34,24.50
2006,08,18,14,35,24.30
2006,08,18,14,36,24.10
2006,08,18,14,37,24.00
2006,08,18,14,38,23.80
2006,08,18,14,39,23.70
2006,08,18,14,40,23.60
2006,08,18,14,41,23.60
2006,08,18,14,42,23.60
2006,08,18,14,43,23.70
2006,08,18,14,44,23.80
2006,08,18,14,45,23.80
2006,08,18,14,46,23.80
2006,08,18,14,47,23.80
2006,08,18,14,48,23.90
2006,08,18,14,49,23.90
2006,08,18,14,50,24.00
2006,08,18,14,51,24.10
2006,08,18,14,52,24.10
2006,08,18,14,53,24.20
2006,08,18,14,54,24.10
2006,08,18,14,55,24.10
2006,08,18,14,56,24.10
2006,08,18,14,57,24.10
2006,08,18,14,58,24.10
2006,08,18,14,59,24.20
2006,08,18,15,00,24.30
2006,08,18,15,01,24.30
2006,08,18,15,02,24.30
2006,08,18,15,03,24.30
2006,08,18,15,04,24.30
2006,08,18,15,05,24.30
2006,08,18,15,06,24.30
2006,08,18,15,07,24.20
2006,08,18,15,08,24.30
2006,08,18,15,09,24.50
2006,08,18,15,10,24.60
2006,08,18,15,11,24.70
2006,08,18,15,12,24.80
2006,08,18,15,13,24.80
2006,08,18,15,14,24.80
2006,08,18,15,15,24.90
2006,08,18,15,16,25.00
2006,08,18,15,17,25.00
2006,08,18,15,18,25.00
2006,08,18,15,19,25.00
2006,08,18,15,20,25.10
2006,08,18,15,21,25.10
2006,08,18,15,22,25.20
2006,08,18,15,23,25.20
2006,08,18,15,24,25.00
2006,08,18,15,25,25.00
2006,08,18,15,26,24.90
2006,08,18,15,27,24.80
2006,08,18,15,28,24.70
2006,08,18,15,29,24.70
2006,08,18,15,30,24.70
2006,08,18,15,31,24.70
2006,08,18,15,32,24.70
2006,08,18,15,33,24.70
2006,08,18,15,34,24.80
2006,08,18,15,35,24.90
2006,08,18,15,36,25.10
2006,08,18,15,37,25.30
2006,08,18,15,38,25.40
2006,08,18,15,39,25.50
2006,08,18,15,40,25.50
2006,08,18,15,41,25.60
2006,08,18,15,42,25.70
2006,08,18,15,43,25.70
2006,08,18,15,44,25.70
2006,08,18,15,45,25.60
2006,08,18,15,46,25.60
2006,08,18,15,47,25.60
2006,08,18,15,48,25.60
2006,08,18,15,49,25.60
2006,08,18,15,50,25.50
2006,08,18,15,51,25.50
2006,08,18,15,52,25.50
2006,08,18,15,53,25.50
2006,08,18,15,54,25.40
2006,08,18,15,55,25.40
2006,08,18,15,56,25.50
2006,08,18,15,57,25.40
2006,08,18,15,58,25.30
2006,08,18,15,59,25.30
2006,08,18,16,00,25.40
2006,08,18,16,01,25.40
2006,08,18,16,02,25.40
2006,08,18,16,03,25.20
2006,08,18,16,04,25.10
2006,08,18,16,05,25.10
2006,08,18,16,06,25.10
2006,08,18,16,07,25.00
2006,08,18,16,08,24.90
2006,08,18,16,09,24.80
2006,08,18,16,10,24.70
2006,08,18,16,11,24.70
2006,08,18,16,12,24.60
2006,08,18,16,13,24.60
2006,08,18,16,14,24.60
2006,08,18,16,15,24.60
2006,08,18,16,16,24.50
2006,08,18,16,17,24.40
2006,08,18,16,18,24.40
2006,08,18,16,19,24.40
2006,08,18,16,20,24.50
2006,08,18,16,21,24.50
2006,08,18,16,22,24.60
2006,08,18,16,23,24.70
2006,08,18,16,24,24.80
2006,08,18,16,25,24.90
2006,08,18,16,26,25.00
2006,08,18,16,27,25.10
2006,08,18,16,28,25.10
2006,08,18,16,29,25.10
2006,08,18,16,30,25.10
2006,08,18,16,31,25.00
2006,08,18,16,32,24.90
2006,08,18,16,33,24.90
2006,08,18,16,34,24.90
2006,08,18,16,35,25.10
2006,08,18,16,36,25.30
2006,08,18,16,37,25.40
2006,08,18,16,38,25.40
2006,08,18,16,39,25.40
2006,08,18,16,40,25.40
2006,08,18,16,41,25.40
2006,08,18,16,42,25.40
2006,08,18,16,43,25.30
2006,08,18,16,44,25.20
2006,08,18,16,45,25.20
2006,08,18,16,46,25.10
2006,08,18,16,47,25.20
2006,08,18,16,48,25.30
2006,08,18,16,49,25.40
2006,08,18,16,50,25.50
2006,08,18,16,51,25.50
2006,08,18,16,52,25.60
2006,08,18,16,53,25.60
2006,08,18,16,54,25.40
2006,08,18,16,55,25.30
2006,08,18,16,56,25.10
2006,08,18,16,57,25.10
2006,08,18,16,58,25.10
2006,08,18,16,59,25.20
2006,08,18,17,00,25.10
2006,08,18,17,01,25.10
2006,08,18,17,02,25.00
2006,08,18,17,03,25.10
2006,08,18,17,04,25.20
2006,08,18,17,05,25.30
2006,08,18,17,06,25.30
2006,08,18,17,07,25.30
2006,08,18,17,08,25.40
2006,08,18,17,09,25.50
2006,08,18,17,10,25.60
2006,08,18,17,11,25.50
2006,08,18,17,12,25.50
2006,08,18,17,13,25.50
2006,08,18,17,14,25.50
2006,08,18,17,15,25.40
2006,08,18,17,16,25.40
2006,08,18,17,17,25.30
2006,08,18,17,18,25.10
2006,08,18,17,19,25.10